CW8847 Weather Reports


time (UTC)temp
C
wind
direction
speed
KPH
gust
KPH
rain 1hr
cm
rain 24hr
cm
rain mn
cm
humidity
%
barometer
mb
20260505035635 17 304 4.8 9.7 0.00 0.00 0.00 45 1005.2
20260505034634 17 196 6.4 8.0 0.00 0.00 0.00 44 1005.0
20260505033632 17 191 0.0 4.8 0.00 0.00 0.00 43 1004.9
20260505032633 17 191 1.6 8.0 0.00 0.00 0.00 41 1004.7
20260505031633 17 191 3.2 4.8 0.00 0.00 0.00 43 1004.6
20260505030617 18 191 4.8 8.0 0.00 0.00 0.00 43 1004.6
20260505025631 18 187 3.2 8.0 0.00 0.00 0.00 41 1004.5
20260505024630 18 184 1.6 8.0 0.00 0.00 0.00 43 1004.4
20260505023630 18 184 3.2 6.4 0.00 0.00 0.00 44 1004.3
20260505022628 18 184 0.0 0.0 0.00 0.00 0.00 41 1004.2
20260505021628 19 184 0.0 9.7 0.00 0.00 0.00 38 1004.1
20260505020628 19 182 1.6 6.4 0.00 0.00 0.00 35 1004.0
20260505015622 20 182 3.2 6.4 0.00 0.00 0.00 34 1003.9
20260505014619 20 182 1.6 8.0 0.00 0.00 0.00 33 1003.8
20260505013619 20 182 3.2 6.4 0.00 0.00 0.00 33 1003.8
20260505012619 20 183 3.2 6.4 0.00 0.00 0.00 34 1003.8
20260505011617 21 182 3.2 6.4 0.00 0.00 0.00 31 1003.8
20260505010616 21 182 6.4 11.3 0.00 0.00 0.00 28 1003.8
20260505005630 21 113 3.2 9.7 0.00 0.00 0.00 25 1003.9
20260505004629 21 70 1.6 12.9 0.00 0.00 0.00 28 1004.0
20260505003632 21 68 12.9 24.1 0.00 0.00 0.00 27 1003.9
20260505002634 22 60 4.8 14.5 0.00 0.00 0.00 25 1004.1
20260505001632 22 65 9.7 17.7 0.00 0.00 0.00 26 1004.1
20260505000633 21 19 19.3 33.8 0.00 0.00 0.00 28 1004.1
20260504235621 21 9 33.8 43.5 0.00 0.00 0.00 28 1003.9
20260504234619 21 32 33.8 45.1 0.00 0.00 0.00 27 1004.0
20260504233618 22 21 32.2 41.8 0.00 0.00 0.00 25 1004.0
20260504232641 21 24 24.1 35.4 0.00 0.00 0.00 26 1004.1
20260504231622 22 28 22.5 37.0 0.00 0.00 0.00 25 1004.2
20260504230621 23 51 22.5 33.8 0.00 0.00 0.00 24 1004.1
20260504225634 23 176 8.0 12.9 0.00 0.00 0.00 21 1004.2
20260504224634 23 275 3.2 12.9 0.00 0.00 0.00 20 1004.3
20260504223634 23 236 16.1 22.5 0.00 0.00 0.00 21 1004.2
20260504222654 23 205 11.3 17.7 0.00 0.00 0.00 23 1004.2
20260504221632 23 221 4.8 16.1 0.00 0.00 0.00 22 1004.3
20260504220617 23 275 6.4 19.3 0.00 0.00 0.00 23 1004.4
20260504215632 23 227 9.7 20.9 0.00 0.00 0.00 23 1004.5
20260504214631 23 215 9.7 16.1 0.00 0.00 0.00 23 1004.7
20260504213630 23 189 12.9 22.5 0.00 0.00 0.00 25 1004.8
20260504212619 22 163 12.9 22.5 0.00 0.00 0.00 27 1005.0